Terug naar catalogus

STARLINK-30854

ActiefCommunicatieVLEO
NORAD 58244·PAYLOAD·🇺🇸 United States

Gelanceerd Nov 8, 2023 vanaf Cape Canaveral Space Force Station

Loading…

Volgende Passages (komende 24 uur)

TLE

VersSource: CelesTrak SupGP

Epoch: Sep 14, 2026, 21:20 UTC

1 58244C 23171Q   26257.88937500 -.00037274  00000+0 -13502-2 0  2573
2 58244  43.0008 296.8372 0001698 262.1796 287.3071 15.27592988    19

Volg STARLINK-30854 in realtime met AllMySat

Download on the App Store